This is the latest recevied weather packets stored in our database for station/object EA7RX-4. If no packets are shown the sender has not sent any weather packets the latest 10 day(s).
| Time | Temp. | Humidity | Pressure | Rain* | Wind** | Luminosity | Snow |
|---|---|---|---|---|---|---|---|
| 1787638803 | 15.56° C | 87% | 1015.3 hPa | 0 mm | - | 42 W/m² | - |
| 1787638203 | 15.56° C | 87% | 1015.2 hPa | 0 mm | - | 32 W/m² | - |
| 1787637603 | 15.56° C | 88% | 1015.2 hPa | 0 mm | - | 22 W/m² | - |
| 1787637003 | 15.56° C | 88% | 1015 hPa | 0 mm | - | 13 W/m² | - |
| 1787636403 | 15.56° C | 87% | 1015.1 hPa | 0 mm | - | 6 W/m² | - |
| 1787635803 | 15.56° C | 87% | 1015.1 hPa | 0 mm | - | 1 W/m² | - |
| 1787635203 | 15.56° C | 87% | 1014.9 hPa | 0 mm | - | 0 W/m² | - |
| 1787634603 | 15.56° C | 86% | 1014.8 hPa | 0 mm | - | 0 W/m² | - |
| 1787634003 | 15.56° C | 87% | 1014.9 hPa | 0 mm | - | 0 W/m² | - |
| 1787633403 | 15.56° C | 86% | 1014.6 hPa | 0 mm | - | 0 W/m² | - |
| 1787632803 | 15.56° C | 87% | 1014.9 hPa | 0 mm | - | 0 W/m² | - |
| 1787632203 | 16.11° C | 87% | 1014.8 hPa | 0 mm | - | 0 W/m² | - |
| 1787631603 | 16.11° C | 87% | 1015.1 hPa | 0 mm | - | 0 W/m² | - |
| 1787631003 | 16.11° C | 86% | 1014.8 hPa | 0 mm | - | 0 W/m² | - |
| 1787630403 | 15.56° C | 87% | 1014.9 hPa | 0 mm | - | 0 W/m² | - |
| 1787629803 | 16.11° C | 87% | 1015.3 hPa | 0 mm | - | 0 W/m² | - |
| 1787629203 | 16.11° C | 86% | 1015.1 hPa | 0 mm | - | 0 W/m² | - |
| 1787628603 | 16.11° C | 86% | 1015.1 hPa | 0 mm | - | 0 W/m² | - |
| 1787628003 | 16.11° C | 85% | 1015.3 hPa | 0 mm | - | 0 W/m² | - |
| 1787627403 | 16.11° C | 84% | 1015.2 hPa | 0 mm | - | 0 W/m² | - |
| 1787626803 | 16.67° C | 83% | 1015.3 hPa | 0 mm | - | 0 W/m² | - |
| 1787626203 | 16.67° C | 82% | 1015.4 hPa | 0 mm | - | 0 W/m² | - |
| 1787625603 | 16.67° C | 81% | 1015.3 hPa | 0 mm | - | 0 W/m² | - |
| 1787625003 | 16.67° C | 80% | 1015.5 hPa | 0 mm | - | 0 W/m² | - |
| 1787624403 | 16.67° C | 78% | 1015.3 hPa | 0 mm | - | 0 W/m² | - |
* Rain latest hour (hover to see other rain measurements)
** Current wind speed in m/s (hover to see current wind gust speed)